Subic Bay, Philippines

1:47 PM +08 on May 23, 2018 (GMT +0800)
Subic Bay International

Weather History for RPLB - October, 2012

Change the Weather History Date:

Monday, October 29, 2012

  Actual Average Record
Temperature  
Mean Temperature 84 °F -  
Max Temperature 92 °F 86 °F 93 °F (2016)
Min Temperature 75 °F 74 °F 73 °F (2013)
Cooling Degree Days 18    
Growing Degree Days 34 (Base 50)    
Moisture  
Dew Point 70 °F    
Average Humidity 63    
Maximum Humidity 83    
Minimum Humidity 47    
Precipitation  
Precipitation 0.00 in - - ()
Sea Level Pressure  
Sea Level Pressure 29.87 in    
Wind  
Wind Speed 10 mph ()    
Max Wind Speed 108 mph    
Max Gust Speed 25 mph    
Visibility 7.5 miles    
Events      
Averages and records for this station are not official NWS values.
T = Trace of Precipitation, MM = Missing Value Source: Averaged Metar Reports

Daily Weather History Graph

Daily Weather History Graph

Search for Another Location

Airport or City:

Astronomy

Oct. 29, 2012 Rise Set
Actual Time 5:53 AM +08 5:31 PM +08
Civil Twilight 5:31 AM +08 5:53 PM +08
Nautical Twilight 5:06 AM +08 6:18 PM +08
Astronomical Twilight 4:41 AM +08 6:43 PM +08
Moon 5:05 PM +08 (10/29) 5:11 AM +08 (10/29)
Length of Visible Light 12h 21m
Length of Day
11h 37m
Full, 100% of the Moon is Illuminated
Oct 29
Full
Oct 30
Full
Nov 7
Last Quarter
Nov 14
New
Nov 20
First Quarter

Hourly Weather History & Observations

Time (+08) Temp. Heat Index Dew Point Humidity Pressure Visibility Wind Dir Wind Speed Gust Speed Precip Events Conditions
12:00 AM 78.8 °F - 69.8 °F 74% 29.92 in 6.2 mi ESE 4.6 mph - N/A   Partly Cloudy
2:00 AM 77 °F - 70 °F 74% 29.88 in 11 mi NE 2.2 mph - -   Haze
2:00 AM 77.0 °F - 71.6 °F 83% 29.86 in 6.2 mi Variable 1.2 mph - N/A   Partly Cloudy
3:00 AM 77.0 °F - 69.8 °F 78% 29.86 in 6.2 mi Variable 2.3 mph - N/A   Partly Cloudy
5:00 AM 78 °F - 68 °F 64% 29.87 in 11 mi East 8.9 mph - -   Haze
5:00 AM 77.0 °F - 68.0 °F 74% 29.86 in 6.2 mi East 11.5 mph - N/A   Partly Cloudy
6:00 AM 77.0 °F - 68.0 °F 74% 29.89 in 6.2 mi Variable 2.3 mph - N/A   Mostly Cloudy
7:00 AM 77.0 °F - 69.8 °F 78% 29.92 in 6.2 mi North 108.2 mph - N/A   Mostly Cloudy
8:00 AM 83 °F - 69 °F 55% 29.92 in 12 mi ENE 8.9 mph - -   Haze
8:00 AM 82.4 °F 86.3 °F 69.8 °F 66% 29.92 in 6.2 mi ENE 11.5 mph - N/A   Mostly Cloudy
9:00 AM 86.0 °F 90.4 °F 69.8 °F 58% 29.92 in 6.2 mi East 9.2 mph - N/A   Mostly Cloudy
10:00 AM 86.0 °F 90.4 °F 69.8 °F 58% 29.92 in 6.2 mi East 15.0 mph - N/A   Partly Cloudy
11:00 AM 88 °F - 71 °F 48% 29.89 in 12 mi ENE 2.2 mph - -   Haze
11:00 AM 87.8 °F 93.8 °F 71.6 °F 58% 29.89 in 6.2 mi East 13.8 mph 25.3 mph N/A   Partly Cloudy
12:00 PM 89.6 °F 96.2 °F 71.6 °F 55% 29.86 in 6.2 mi East 17.3 mph - N/A   Scattered Clouds
1:00 PM 89.6 °F 96.2 °F 71.6 °F 55% 29.83 in 6.2 mi East 13.8 mph - N/A   Scattered Clouds
2:00 PM 89 °F - 71 °F 47% 29.81 in 12 mi ENE 13.4 mph - -   Haze
2:00 PM 89.6 °F 96.2 °F 71.6 °F 55% 29.80 in 6.2 mi ENE 13.8 mph - N/A   Scattered Clouds
3:00 PM 89.6 °F 94.7 °F 69.8 °F 52% 29.80 in 6.2 mi ENE 13.8 mph - N/A   Scattered Clouds
4:00 PM 89.6 °F 93.4 °F 68.0 °F 49% 29.80 in 6.2 mi East 10.4 mph - N/A   Partly Cloudy
5:00 PM 86 °F - 69 °F 49% 29.83 in 12 mi East 8.9 mph - -   Haze
5:00 PM 86.0 °F 90.4 °F 69.8 °F 58% 29.83 in 6.2 mi ENE 10.4 mph - N/A   Scattered Clouds
6:00 PM 82.4 °F 86.3 °F 69.8 °F 66% 29.83 in 6.2 mi East 4.6 mph - N/A   Mostly Cloudy
7:00 PM 80.6 °F 83.9 °F 69.8 °F 70% 29.86 in 6.2 mi Variable 3.5 mph - N/A   Partly Cloudy
8:00 PM 81 °F - 68 °F 57% 29.88 in 11 mi East 2.2 mph - -   Haze
8:00 PM 80.6 °F 83.2 °F 68.0 °F 65% 29.89 in 6.2 mi Variable 2.3 mph - N/A   Partly Cloudy
10:00 PM 77.0 °F - 69.8 °F 78% 29.86 in 6.2 mi ENE 2.3 mph - N/A   Partly Cloudy
11:00 PM 77.0 °F - 69.8 °F 78% 29.86 in 6.2 mi NNE 3.5 mph - N/A   Partly Cloudy